utc_time,unix_time,temp,cond,salinity,tds,chla_rfu,chla_ugl,bga_rfu,bga_ugl,odo,sat,nitrate_um,nitrogen_mg,stage,area,discharge,total_discharge
2019-07-01 00:00:00+00:00,1561939202,24.52,45552.71,29.81,29.88,,,,,16.21,230.43,18.201,0.25491,0.982,1.5712,0.0206,0.0412
2019-07-01 00:20:00+00:00,1561940401,24.561,45138.05,29.48,29.59,,,,,16.32,231.7,17.045,0.23876,0.982,1.5712,0.00075,0.0015
2019-07-01 00:40:00+00:00,1561941601,24.447,46977.82,30.9,30.86,,,,,14.94,213.46,16.113,0.2257,0.983,1.5728,0.0044,0.0088
2019-07-01 01:00:00+00:00,1561942802,24.405,46044.43,30.25,30.27,,,,,15.45,219.75,17.178,0.24062,0.983,1.5728,0.0192,0.0384
2019-07-01 01:20:00+00:00,1561944002,24.328,45979.98,30.25,30.28,,,,,14.79,210.09,16.416,0.22994,0.984,1.5744,0.00515,0.0103
2019-07-01 01:40:00+00:00,1561945201,24.198,44996.84,29.61,29.7,,,,,14.14,199.66,17.515,0.24535,0.985,1.576,0.0192,0.0384
2019-07-01 02:00:00+00:00,1561946401,24.103,45203.86,29.83,29.89,,,,,13.98,197.3,17.401,0.24374,0.985,1.576,0.0059,0.0118
2019-07-01 02:20:00+00:00,1561947601,24.042,44747.59,29.53,29.63,,,,,13.47,189.59,16.954,0.23749,0.987,1.5792,0.02445,0.0489
2019-07-01 02:40:00+00:00,1561948802,23.934,44967.91,29.77,29.84,,,,,12.91,181.71,16.704,0.23396,0.989,1.5824,0.0178,0.0356
2019-07-01 03:00:00+00:00,1561950002,23.802,44660.77,29.63,29.71,,,,,12.28,172.27,17.048,0.2388,0.992,1.5872,0.0164,0.0328
2019-07-01 03:20:00+00:00,1561951201,23.692,44661.12,29.7,29.77,,,,,11.62,162.7,17.309,0.24244,0.9935,1.5896,0.04105,0.0821
2019-07-01 03:40:00+00:00,1561952401,23.638,45454.69,30.33,30.33,,,,,10.61,148.96,17.37,0.24328,0.995,1.592,0.0135,0.027
2019-07-01 04:00:00+00:00,1561953602,23.579,44081.08,29.35,29.45,,,,,9.47,132.07,20.764,0.29084,0.997,1.5952,0.0374,0.0748
2019-07-01 04:20:00+00:00,1561954802,23.629,43693.06,29.03,29.16,,,,,7.7,107.3,20.491,0.28699,0.9975,1.596,0.036,0.072
2019-07-01 04:40:00+00:00,1561956002,23.432,46500.15,31.25,31.16,,,,,7.19,101.17,21.812,0.30551,0.999,1.5984,0.048,0.096
2019-07-01 05:00:00+00:00,1561957202,23.181,46135.38,31.16,31.07,,,,,7.16,100.15,22.355,0.31311,1.002,1.6032,0.0271,0.0542
2019-07-01 05:20:00+00:00,1561958401,22.914,45368.47,30.76,30.71,,,,,7.27,101.09,23.637,0.33109,1.0055,1.6088,0.06875,0.1375
2019-07-01 05:40:00+00:00,1561959601,22.487,45366.02,31.06,30.97,,,,,7.37,101.91,28.971,0.40581,1.008,1.6128,0.0606,0.1212
2019-07-01 06:00:00+00:00,1561960801,22.385,45046.41,30.89,30.82,,,,,7.64,105.23,33.539,0.46979,1.009,1.6144,0.0607,0.1214
2019-07-01 06:20:00+00:00,1561962001,22.164,44841.8,30.89,30.82,,,,,7.56,103.81,35.629,0.49906,1.0135,1.6216,0.01525,0.0305
2019-07-01 06:40:00+00:00,1561963201,21.887,43934.16,30.39,30.36,,,,,7.92,107.94,37.38,0.52355,1.016,1.6256,0.0596,0.1192
2019-07-01 07:00:00+00:00,1561964402,21.706,44369.83,30.85,30.78,,,,,7.68,104.56,45.3,0.63452,1.018,1.6288,-0.0015,-0.003
2019-07-01 07:20:00+00:00,1561965602,21.525,44023.14,30.71,30.65,,,,,7.47,101.3,49.086,0.68752,1.018,1.6288,0.0329,0.0658
2019-07-01 07:40:00+00:00,1561966801,21.338,43835.66,30.7,30.64,,,,,7.37,99.52,46.741,0.65472,1.018,1.6288,0.072,0.144
2019-07-01 08:00:00+00:00,1561968001,21.247,43048.86,30.15,30.14,,,,,7.27,97.76,52.979,0.74206,1.018,1.6288,0.0582,0.1164
2019-07-01 08:20:00+00:00,1561969202,21.056,41918.96,29.4,29.47,,,,,7.01,93.54,59.511,0.83356,1.0185,1.6296,0.0276,0.0552
2019-07-01 08:40:00+00:00,1561970401,20.98,41770.72,29.33,29.41,,,,,6.98,92.95,61.718,0.86447,1.017,1.6272,0.0184,0.0368
2019-07-01 09:00:00+00:00,1561971601,20.854,42114.25,29.69,29.73,,,,,6.77,90.05,56.941,0.79756,1.018,1.6288,0.0459,0.0918
2019-07-01 09:20:00+00:00,1561972801,20.71,41127.43,29.01,29.12,,,,,6.06,80.14,58.006,0.81247,1.0165,1.6264,0.0084,0.0168
2019-07-01 09:40:00+00:00,1561974001,20.717,43436.19,30.83,30.75,,,,,6.32,84.46,45.091,0.63158,1.016,1.6256,0.0122,0.0244
2019-07-01 10:00:00+00:00,1561975202,20.541,43503.98,31.01,30.91,,,,,5.28,70.42,19.126,0.26787,1.016,1.6256,-0.0107,-0.0214
2019-07-01 10:20:00+00:00,1561976402,20.213,43195.86,31.01,30.9,,,,,5.4,71.64,14.237,0.1994,1.005,1.608,-0.1239,-0.2478
2019-07-01 10:40:00+00:00,1561977602,20.123,43304.91,31.16,31.04,,,,,5.78,76.6,13.379,0.18743,0.969,1.5504,-0.4348,-0.8696
2019-07-01 11:00:00+00:00,1561978801,20.112,43151.54,31.04,30.94,,,,,5.62,74.43,12.587,0.1763,0.949,1.5184,-0.4624,-0.9248
2019-07-01 11:20:00+00:00,1561980001,20.106,43206.56,31.09,30.98,,,,,5.44,72.03,12.626,0.17686,0.924,1.4784,-0.43795,-0.8759
2019-07-01 11:40:00+00:00,1561981201,20.054,43275.18,31.19,31.06,,,,,5.21,69,13.481,0.18885,0.902,1.4432,-0.4116,-0.8232
2019-07-01 12:00:00+00:00,1561982401,19.992,43091.73,31.09,30.97,,,,,4.98,65.77,13.04,0.18266,0.889,1.4224,-0.3854,-0.7708
2019-07-01 12:20:00+00:00,1561983601,19.911,43049.01,31.11,30.99,,,,,4.71,62.08,13.6,0.1905,0.874,1.3984,-0.35395,-0.7079
2019-07-01 12:40:00+00:00,1561984802,19.807,42859.58,31.03,30.93,,,,,4.43,58.26,13.179,0.18459,0.859,1.3744,-0.3193,-0.6386
2019-07-01 13:00:00+00:00,1561986002,19.708,42740.86,31.01,30.91,,,,,4.16,54.63,13.67,0.19149,0.85,1.36,-0.3196,-0.6392
2019-07-01 13:20:00+00:00,1561987201,19.62,42609.62,30.97,30.87,,,,,3.86,50.63,13.711,0.19205,0.8405,1.3448,-0.3109,-0.6218
2019-07-01 13:40:00+00:00,1561988401,,,,,,,,,,,14.987,0.20989,0.83,1.328,-0.3253,-0.6506
2019-07-01 14:00:00+00:00,1561989601,19.482,42575.38,31.04,30.93,,,,,3.01,39.43,13.2,0.18487,0.823,1.3168,-0.3261,-0.6522
2019-07-01 14:20:00+00:00,1561990802,19.422,42473.21,31.01,30.9,,,,,2.6,34.01,16.34,0.22887,0.823,1.3168,-0.23035,-0.4607
2019-07-01 14:40:00+00:00,1561992002,19.395,41586.91,30.3,30.27,,,,,2.14,27.82,15.295,0.21422,0.845,1.352,-0.0857,-0.1714
2019-07-01 15:00:00+00:00,1561993202,19.37,41280.56,30.07,30.07,,,,,1.92,24.88,16.473,0.23072,0.856,1.3696,-0.0677,-0.1354
2019-07-01 15:20:00+00:00,1561994402,19.322,41951.95,30.65,30.59,,,,,1.81,23.61,16.522,0.2314,0.866,1.3856,-0.07315,-0.1463
2019-07-01 15:40:00+00:00,1561995602,19.307,41371.23,30.19,30.17,,,,,1.68,21.85,16.279,0.22802,0.879,1.4064,-0.0578,-0.1156
2019-07-01 16:00:00+00:00,1561996801,19.298,41111.72,29.99,29.99,,,,,1.89,24.55,16.073,0.22513,0.884,1.4144,-0.033,-0.066
2019-07-01 16:20:00+00:00,1561998001,19.319,41542.23,30.32,30.29,,,,,1.38,17.88,16.405,0.22977,0.893,1.4288,-0.02735,-0.0547
2019-07-01 16:40:00+00:00,1561999201,19.352,41410.38,30.19,30.17,,,,,1.07,13.95,16.217,0.22713,0.902,1.4432,-0.0499,-0.0998
2019-07-01 17:00:00+00:00,1562000401,19.384,41308.87,30.09,30.08,,,,,0.99,12.88,16.337,0.22881,0.906,1.4496,-0.0352,-0.0704
2019-07-01 17:20:00+00:00,1562001602,19.484,41598.84,30.25,30.22,,,,,1.14,14.86,16.045,0.22475,0.912,1.4592,-0.02805,-0.0561
2019-07-01 17:40:00+00:00,1562002802,20.062,43538.46,31.39,31.25,,,,,4.02,53.23,16.959,0.23751,0.919,1.4704,-0.022,-0.044
2019-07-01 18:00:00+00:00,1562004001,20.222,43145.93,30.96,30.86,,,,,4.47,59.23,16.686,0.23371,0.921,1.4736,0.0248,0.0496
2019-07-01 18:20:00+00:00,1562005201,20.487,43384.37,30.96,30.86,,,,,4.01,53.37,17.625,0.24686,0.9265,1.4824,0.0139,0.0278
2019-07-01 18:40:00+00:00,1562006401,20.798,43961.66,31.19,31.07,,,,,6.21,83.36,16.504,0.23118,0.929,1.4864,0.0237,0.0474
2019-07-01 19:00:00+00:00,1562007601,21.084,44396.43,31.32,31.19,,,,,6.98,94.22,16.833,0.23578,0.93,1.488,0.0237,0.0474
2019-07-01 19:20:00+00:00,1562008802,21.48,44753.38,31.31,31.19,,,,,7.55,102.63,16.789,0.23515,0.9315,1.4904,0,0
2019-07-01 19:40:00+00:00,1562010002,21.701,44884.25,31.26,31.14,,,,,8.13,110.88,17.485,0.24491,0.932,1.4912,0.0572,0.1144
2019-07-01 20:00:00+00:00,1562011201,22.149,45304.53,31.26,31.14,,,,,8.32,114.4,17.13,0.23993,0.932,1.4912,0.0307,0.0614
2019-07-01 20:20:00+00:00,1562012402,22.363,45501.89,31.26,31.14,,,,,8.81,121.6,16.65,0.23321,0.933,1.4928,0.01675,0.0335
2019-07-01 20:40:00+00:00,1562013601,22.8,45395.29,30.87,30.8,,,,,8.95,124.17,15.992,0.22402,0.932,1.4912,-0.0098,-0.0196
2019-07-01 21:00:00+00:00,1562014801,23.132,45445.1,30.67,30.63,,,,,9.8,136.64,16.92,0.23701,0.933,1.4928,0,0
2019-07-01 21:20:00+00:00,1562016001,,,,,,,,,,,17.478,0.24479,0.934,1.4944,0.0168,0.0336
2019-07-01 21:40:00+00:00,1562017201,23.769,46268.53,30.85,30.8,,,,,10.24,144.5,17.681,0.24765,0.933,1.4928,0.0419,0.0838
2019-07-01 22:00:00+00:00,1562018401,23.924,46817.98,31.15,31.07,,,,,10.92,154.79,17.405,0.24377,0.933,1.4928,-0.0084,-0.0168
2019-07-01 22:20:00+00:00,1562019602,24.202,47041.07,31.12,31.05,,,,,10.58,150.7,16.71,0.23404,0.933,1.4928,0,0
2019-07-01 22:40:00+00:00,1562020802,24.551,47296.19,31.07,31.01,,,,,10.08,144.42,19.023,0.26642,0.933,1.4928,0.0028,0.0056
2019-07-01 23:00:00+00:00,1562022002,24.618,47334.32,31.05,30.99,,,,,11.18,160.34,18.654,0.2613,0.933,1.4928,0.0224,0.0448
2019-07-01 23:20:00+00:00,1562023202,24.636,47253.59,30.98,30.93,,,,,9.76,139.97,18.694,0.26187,0.9335,1.4936,0.0175,0.035
2019-07-01 23:40:00+00:00,1562024402,,,,,,,,,,,17.515,0.24535,0.935,1.496,0.0042,0.0084
2019-07-02 00:00:00+00:00,1562025601,24.811,47428.4,30.98,30.94,,,,,10.03,144.34,19.289,0.27017,0.934,1.4944,0.0084,0.0168
2019-07-02 00:20:00+00:00,1562026802,24.921,47604.81,31.04,30.99,,,,,10.63,153.19,17.686,0.2477,0.934,1.4944,0.0322,0.0644
2019-07-02 00:40:00+00:00,1562028002,24.629,47155.24,30.91,30.87,,,,,10.93,156.69,17.774,0.24896,0.934,1.4944,0.0518,0.1036
2019-07-02 01:00:00+00:00,1562029201,24.659,47233.65,30.95,30.9,,,,,10.27,147.39,18.742,0.2625,0.935,1.496,0.0084,0.0168
2019-07-02 01:20:00+00:00,1562030401,24.643,47123.59,30.88,30.84,,,,,10.12,145.11,20.822,0.29165,0.9345,1.4952,0.0525,0.105
2019-07-02 01:40:00+00:00,1562031601,24.714,46373.85,30.28,30.31,,,,,10.48,149.89,19.997,0.28009,0.934,1.4944,-0.0196,-0.0392
2019-07-02 02:00:00+00:00,1562032802,24.631,45790.32,29.91,29.97,,,,,10.46,149.04,21.167,0.2965,0.935,1.496,0.028,0.056
2019-07-02 02:20:00+00:00,1562034001,24.547,46304.18,30.34,30.36,,,,,10.36,147.75,19.115,0.26774,0.936,1.4976,0.0189,0.0378
2019-07-02 02:40:00+00:00,1562035202,24.502,46100.8,30.22,30.25,,,,,9.89,140.92,19.22,0.2692,0.939,1.5024,0.069,0.138
2019-07-02 03:00:00+00:00,1562036402,24.507,47823.28,31.48,31.38,,,,,9.71,139.34,18.47,0.25871,0.939,1.5024,0.045,0.09
2019-07-02 03:20:00+00:00,1562037602,24.407,47671.4,31.44,31.34,,,,,8.48,121.51,19.406,0.27183,0.9435,1.5096,0.0431,0.0862
2019-07-02 03:40:00+00:00,1562038801,24.298,47548.72,31.43,31.33,,,,,7.66,109.45,18.847,0.264,0.948,1.5168,0.0171,0.0342
2019-07-02 04:00:00+00:00,1562040001,24.196,47239.39,31.27,31.18,,,,,6.73,95.98,19.303,0.27036,0.95,1.52,0.0442,0.0884
2019-07-02 04:20:00+00:00,1562041201,24.145,46969.06,31.11,31.04,,,,,6.4,91.14,20.198,0.28293,0.953,1.5248,0.04215,0.0843
2019-07-02 04:40:00+00:00,1562042401,24.032,46692,30.98,30.92,,,,,6.02,85.45,22.639,0.31708,0.959,1.5344,0.036,0.072
2019-07-02 05:00:00+00:00,1562043602,23.899,46595.33,31,30.94,,,,,5.34,75.64,30.775,0.43106,0.96,1.536,0.059,0.118
2019-07-02 05:20:00+00:00,1562044802,23.449,45804.01,30.72,30.68,,,,,6.09,85.45,44.613,0.62489,0.962,1.5392,0.01515,0.0303
2019-07-02 05:40:00+00:00,1562046001,23.016,45275.02,30.62,30.59,,,,,6.51,90.51,55.744,0.78079,0.965,1.544,0.0014,0.0028
2019-07-02 06:00:00+00:00,1562047201,22.736,44554.66,30.27,30.27,,,,,6.75,93.22,62.773,0.87922,0.969,1.5504,0.0654,0.1308
2019-07-02 06:20:00+00:00,1562048402,22.469,44310.37,30.27,30.26,,,,,7.16,98.5,65.973,0.92405,0.9725,1.556,0.04455,0.0891
2019-07-02 06:40:00+00:00,1562049601,22.266,43819.97,30.04,30.05,,,,,7.08,96.83,67.764,0.94917,0.974,1.5584,0.0263,0.0526
2019-07-02 07:00:00+00:00,1562050802,21.996,43682.79,30.12,30.12,,,,,6.98,95.06,68.75,0.96299,0.976,1.5616,0.0659,0.1318
2019-07-02 07:20:00+00:00,1562052001,21.941,43406.3,29.94,29.96,,,,,6.29,85.53,73.735,1.03279,0.9795,1.5672,0.04265,0.0853
2019-07-02 07:40:00+00:00,1562053201,21.71,43824.57,30.43,30.4,,,,,6.7,90.93,65.846,0.92229,0.981,1.5696,0.0088,0.0176
2019-07-02 08:00:00+00:00,1562054402,21.58,43146,29.99,30.01,,,,,6.26,84.63,69.143,0.96848,0.982,1.5712,0.0088,0.0176
2019-07-02 08:20:00+00:00,1562055602,21.358,43489.48,30.41,30.38,,,,,6.09,82.11,68.062,0.95332,0.982,1.5712,0.05825,0.1165
2019-07-02 08:40:00+00:00,1562056801,21.033,43312.58,30.51,30.46,,,,,6.1,81.85,64.279,0.90033,0.982,1.5712,0.0074,0.0148
2019-07-02 09:00:00+00:00,1562058001,20.949,43087.14,30.39,30.36,,,,,5.83,78.11,65.733,0.92071,0.982,1.5712,0.0324,0.0648
2019-07-02 09:20:00+00:00,1562059201,20.834,42918.01,30.34,30.31,,,,,5.95,79.42,69.653,0.97562,0.9815,1.5704,0.03905,0.0781
2019-07-02 09:40:00+00:00,1562060401,20.717,43052.54,30.53,30.48,,,,,5.57,74.3,66.296,0.92857,0.981,1.5696,0.0103,0.0206
2019-07-02 10:00:00+00:00,1562061602,20.638,43068.57,30.6,30.54,,,,,5.38,71.69,65.555,0.9182,0.981,1.5696,0.0103,0.0206
2019-07-02 10:20:00+00:00,1562062802,20.699,43494.43,30.89,30.8,,,,,5.03,67.25,49.166,0.68862,0.9805,1.5688,0.0243,0.0486
2019-07-02 10:40:00+00:00,1562064002,20.602,43783.53,31.19,31.07,,,,,3.94,52.65,32.785,0.45921,0.98,1.568,0.0132,0.0264
2019-07-02 11:00:00+00:00,1562065202,20.512,43958.44,31.4,31.25,,,,,3.74,49.91,19.023,0.26644,0.97,1.552,-0.1252,-0.2504
2019-07-02 11:20:00+00:00,1562066401,20.419,44192.58,31.65,31.48,,,,,4.23,56.45,15.731,0.22036,0.932,1.4912,-0.36865,-0.7373
2019-07-02 11:40:00+00:00,1562067601,20.37,44180.99,31.68,31.5,,,,,4.36,58.2,15.668,0.21946,0.902,1.4432,-0.3643,-0.7286
2019-07-02 12:00:00+00:00,1562068801,20.321,44251.14,31.77,31.59,,,,,4.28,57.11,16.285,0.22809,0.885,1.416,-0.3505,-0.701
2019-07-02 12:20:00+00:00,1562070001,20.264,44242.23,31.81,31.62,,,,,4.17,55.64,14.739,0.20644,0.8625,1.38,-0.33475,-0.6695
2019-07-02 12:40:00+00:00,1562071201,20.196,44221.06,31.84,31.65,,,,,3.99,53.11,15.37,0.21528,0.841,1.3456,-0.306,-0.612
2019-07-02 13:00:00+00:00,1562072401,20.093,44047.25,31.78,31.59,,,,,3.75,49.81,15.598,0.21846,0.828,1.3248,-0.3159,-0.6318
2019-07-02 13:20:00+00:00,1562073601,19.988,44024.7,31.84,31.65,,,,,3.68,48.77,15.233,0.21332,0.812,1.2992,-0.26105,-0.5221
2019-07-02 13:40:00+00:00,1562074801,19.882,43943.86,31.86,31.66,,,,,3.49,46.16,15.109,0.21163,0.797,1.2752,-0.2489,-0.4978
2019-07-02 14:00:00+00:00,1562076001,19.822,43840.23,31.82,31.62,,,,,3.4,45.02,15.44,0.21626,0.787,1.2592,-0.2433,-0.4866
2019-07-02 14:20:00+00:00,1562077201,19.778,43853.16,31.86,31.66,,,,,3.52,46.59,15.309,0.21444,0.774,1.2384,-0.2207,-0.4414
2019-07-02 14:40:00+00:00,1562078402,19.771,43846.39,31.86,31.66,,,,,3.54,46.77,16.22,0.22718,0.761,1.2176,-0.192,-0.384
2019-07-02 15:00:00+00:00,1562079602,19.794,44077.39,32.03,31.81,,,,,3.62,47.96,16.953,0.23745,0.752,1.2032,-0.1896,-0.3792
2019-07-02 15:20:00+00:00,1562080802,19.841,43473.28,31.51,31.35,,,,,3.83,50.61,17.872,0.25033,0.7565,1.2104,-0.12825,-0.2565
2019-07-02 15:40:00+00:00,1562082002,19.901,43194.72,31.24,31.11,,,,,3.61,47.68,18.708,0.26204,0.775,1.24,-0.0725,-0.145
2019-07-02 16:00:00+00:00,1562083202,19.943,43084.79,31.12,31,,,,,3.81,50.28,18.487,0.25894,0.785,1.256,-0.0513,-0.1026
2019-07-02 16:20:00+00:00,1562084402,19.996,43147.74,31.13,31.01,,,,,2.99,39.54,,,0.794,1.2704,-0.0607,-0.1214
2019-07-02 16:40:00+00:00,1562085602,20.063,41936.73,30.11,30.1,,,,,3.12,41.02,,,0.802,1.2832,-0.0119,-0.0238
2019-07-02 17:00:00+00:00,1562086801,20.155,42448.02,30.45,30.41,,,,,2.89,38.13,,,0.808,1.2928,-0.0265,-0.053
2019-07-02 17:20:00+00:00,1562088002,20.244,42826.62,30.69,30.62,,,,,2.82,37.35,,,0.8145,1.3032,-0.0182,-0.0364
2019-07-02 17:40:00+00:00,1562089202,20.32,44279.73,31.8,31.61,,,,,4.58,61.06,21.427,0.30011,0.821,1.3136,-0.0147,-0.0294
2019-07-02 18:00:00+00:00,1562090401,20.404,44311.66,31.76,31.57,,,,,4.7,62.79,22.796,0.3193,0.824,1.3184,-0.0147,-0.0294
2019-07-02 18:20:00+00:00,1562091602,20.715,44660.61,31.8,31.62,,,,,5.48,73.68,21.439,0.3003,0.8305,1.3288,-0.0118,-0.0236
2019-07-02 18:40:00+00:00,1562092801,21.138,45353.58,32.04,31.83,,,,,6.5,88.11,21.315,0.29854,0.835,1.336,-0.01,-0.02
2019-07-02 19:00:00+00:00,1562094002,21.383,45525.42,31.99,31.79,,,,,6.87,93.57,18.546,0.25976,0.838,1.3408,-0.0387,-0.0774
2019-07-02 19:20:00+00:00,1562095202,21.807,45841.87,31.92,31.73,,,,,7.11,97.53,18.612,0.26068,0.844,1.3504,0.01065,0.0213
2019-07-02 19:40:00+00:00,1562096401,22.036,45906.62,31.81,31.63,,,,,7.32,100.8,19.021,0.26642,0.847,1.3552,0.0025,0.005
2019-07-02 20:00:00+00:00,1562097601,22.512,46266.64,31.74,31.57,,,,,6.85,95.12,18.56,0.25996,0.849,1.3584,0.0152,0.0304
2019-07-02 20:20:00+00:00,1562098802,22.843,46580.15,31.74,31.58,,,,,7.48,104.47,20.6,0.28854,0.8525,1.364,0.00635,0.0127
2019-07-02 20:40:00+00:00,1562100002,22.972,46579.62,31.64,31.5,,,,,7.43,103.96,20.561,0.288,0.856,1.3696,0.0153,0.0306
2019-07-02 21:00:00+00:00,1562101201,23.275,46682.17,31.5,31.38,,,,,8.14,114.39,19.31,0.27048,0.857,1.3712,0.0269,0.0538
2019-07-02 21:20:00+00:00,1562102401,23.758,47011.61,31.41,31.3,,,,,8.48,120.05,18.669,0.26147,0.86,1.376,0.01285,0.0257
2019-07-02 21:40:00+00:00,1562103601,23.782,46933.41,31.33,31.23,,,,,9.35,132.39,18.999,0.26609,0.862,1.3792,0.0116,0.0232
2019-07-02 22:00:00+00:00,1562104801,23.98,47082.33,31.3,31.21,,,,,9.05,128.51,19.78,0.27706,0.863,1.3808,0.0155,0.031
2019-07-02 22:20:00+00:00,1562106002,24.186,47770.69,31.67,31.54,,,,,8.81,125.79,19.755,0.27672,0.864,1.3824,0.0058,0.0116
2019-07-02 22:40:00+00:00,1562107201,24.331,48079.48,31.8,31.66,,,,,8.41,120.6,20.022,0.28044,0.866,1.3856,-0.0026,-0.0052
2019-07-02 23:00:00+00:00,1562108401,24.506,47446.26,31.21,31.13,,,,,7.85,112.49,19.833,0.27779,0.869,1.3904,0.0065,0.013
2019-07-02 23:20:00+00:00,1562109602,24.654,47485.16,31.13,31.07,,,,,8.32,119.53,22.549,0.31583,0.8695,1.3912,0.00455,0.0091
2019-07-02 23:40:00+00:00,1562110801,24.96,46482.38,30.19,30.24,,,,,9.62,138.07,20.42,0.28601,0.871,1.3936,-0.0299,-0.0598
2019-07-03 00:00:00+00:00,1562112001,24.754,48338.51,31.69,31.57,,,,,8.32,119.98,20.04,0.2807,0.871,1.3936,0.0052,0.0104
2019-07-03 00:20:00+00:00,1562113201,24.707,48073.35,31.53,31.42,,,,,8.27,119.06,20.4,0.28571,0.8725,1.396,0.0228,0.0456
2019-07-03 00:40:00+00:00,1562114402,24.689,48259.42,31.68,31.56,,,,,8.08,116.48,20.269,0.28391,0.874,1.3984,0.0209,0.0418
2019-07-03 01:00:00+00:00,1562115602,24.69,47950.95,31.45,31.35,,,,,8.85,127.44,20.601,0.28851,0.873,1.3968,0.0039,0.0078
2019-07-03 01:20:00+00:00,1562116801,24.64,46425.45,30.37,30.39,,,,,8.8,125.74,22.564,0.31604,0.8755,1.4008,0.0137,0.0274
2019-07-03 01:40:00+00:00,1562118001,24.531,48225.67,31.76,31.63,,,,,8.59,123.46,19.378,0.27145,0.875,1.4,0.0235,0.047
2019-07-03 02:00:00+00:00,1562119201,24.37,47974.86,31.69,31.56,,,,,8.47,121.41,19.802,0.27734,0.877,1.4032,0.0026,0.0052
2019-07-03 02:20:00+00:00,1562120402,24.244,47885.23,31.72,31.58,,,,,8.65,123.8,20.58,0.28828,0.878,1.4048,0.02425,0.0485
2019-07-03 02:40:00+00:00,1562121602,24.191,47668.93,31.59,31.47,,,,,8.77,125.2,19.862,0.27821,0.882,1.4112,-0.0092,-0.0184
2019-07-03 03:00:00+00:00,1562122801,24.046,47450.09,31.53,31.42,,,,,8.22,117.11,20.525,0.28752,0.882,1.4112,0.0224,0.0448
2019-07-03 03:20:00+00:00,1562124001,23.916,47128.63,31.38,31.28,,,,,7.43,105.49,20.283,0.28408,0.8835,1.4136,0.0218,0.0436
2019-07-03 03:40:00+00:00,1562125202,23.844,47146.91,31.45,31.34,,,,,6.48,91.96,20.516,0.28736,0.886,1.4176,0.0702,0.1404
2019-07-03 04:00:00+00:00,1562126402,23.94,47132.43,31.37,31.27,,,,,5.23,74.25,21.342,0.29892,0.886,1.4176,0.0172,0.0344
2019-07-03 04:20:00+00:00,1562127602,23.935,47007.73,31.28,31.19,,,,,4.35,61.8,23.306,0.32643,0.8895,1.4232,0.0379,0.0758
2019-07-03 04:40:00+00:00,1562128801,23.819,46614.52,31.07,31,,,,,4.49,63.55,27.204,0.38102,0.892,1.4272,0.0253,0.0506
2019-07-03 05:00:00+00:00,1562130001,23.429,46161.99,31,30.93,,,,,5.33,74.83,35.127,0.49201,0.897,1.4352,0.0309,0.0618
2019-07-03 05:20:00+00:00,1562131201,23.011,45388.08,30.71,30.67,,,,,5.96,82.9,44.07,0.6173,0.9005,1.4408,0.03705,0.0741
2019-07-03 05:40:00+00:00,1562132402,22.594,44400.53,30.25,30.25,,,,,6.07,83.64,51.265,0.71805,0.904,1.4464,0.0636,0.1272
2019-07-03 06:00:00+00:00,1562133601,22.175,44292.41,30.46,30.43,,,,,6.25,85.55,56.782,0.79534,0.909,1.4544,0.0313,0.0626
2019-07-03 06:20:00+00:00,1562134802,21.96,43963.45,30.36,30.34,,,,,6.32,86.19,58.546,0.82005,0.912,1.4592,0.03825,0.0765
2019-07-03 06:40:00+00:00,1562136001,21.441,43392.43,30.28,30.26,,,,,6.79,91.67,59.972,0.84001,0.916,1.4656,0.0247,0.0494
2019-07-03 07:00:00+00:00,1562137201,21.2,43044.32,30.18,30.17,,,,,6.43,86.4,57.827,0.80995,0.921,1.4736,0.0428,0.0856
2019-07-03 07:20:00+00:00,1562138402,21.054,43119.52,30.34,30.31,,,,,6.19,83,60.229,0.84361,0.923,1.4768,0.0726,0.1452
2019-07-03 07:40:00+00:00,1562139602,,,,,,,,,,,61.896,0.86695,0.927,1.4832,0.0889,0.1778
2019-07-03 08:00:00+00:00,1562140801,20.823,43988.56,31.19,31.07,,,,,6.08,81.62,56.034,0.78488,0.93,1.488,0.0641,0.1282
2019-07-03 08:20:00+00:00,1562142001,20.654,43715.42,31.1,30.99,,,,,5.75,76.9,52.056,0.72915,0.9315,1.4904,0.03905,0.0781
2019-07-03 08:40:00+00:00,1562143202,20.46,43353.76,30.95,30.86,,,,,5.78,76.96,50.78,0.71127,0.933,1.4928,0.0433,0.0866
2019-07-03 09:00:00+00:00,1562144401,20.251,43245.24,31.02,30.91,,,,,5.4,71.7,50.375,0.70558,0.933,1.4928,0.0433,0.0866
2019-07-03 09:20:00+00:00,1562145601,20.107,42944.61,30.88,30.79,,,,,4.96,65.61,53.546,0.75001,0.9345,1.4952,0.0434,0.0868
2019-07-03 09:40:00+00:00,1562146801,19.958,41946.23,30.19,30.17,,,,,5.03,66.02,49.089,0.68756,0.935,1.496,0.0252,0.0504
2019-07-03 10:00:00+00:00,1562148001,19.784,41051.98,29.6,29.64,,,,,4.68,61.06,47.789,0.66936,0.936,1.4976,0,0
2019-07-03 10:20:00+00:00,1562149201,19.702,41126.32,29.71,29.74,,,,,4.31,56.22,54.92,0.76925,0.936,1.4976,0.00845,0.0169
2019-07-03 10:40:00+00:00,1562150401,19.578,40320.43,29.15,29.24,,,,,4.2,54.43,49.301,0.69051,0.936,1.4976,0.0084,0.0168
2019-07-03 11:00:00+00:00,1562151601,19.859,41797.91,30.14,30.13,,,,,4.71,61.73,47.044,0.65892,0.936,1.4976,0.0084,0.0168
2019-07-03 11:20:00+00:00,1562152802,20.297,44040.66,31.62,31.45,,,,,3.62,48.28,32.598,0.45658,0.937,1.4992,0.0063,0.0126
2019-07-03 11:40:00+00:00,1562154002,20.275,44364.98,31.9,31.7,,,,,2.59,34.57,23.908,0.33488,0.926,1.4816,-0.1304,-0.2608
2019-07-03 12:00:00+00:00,1562155202,20.038,44264.72,32,31.78,,,,,2.48,33.01,17.803,0.24937,0.902,1.4432,-0.2483,-0.4966
2019-07-03 12:20:00+00:00,1562156402,19.814,44265.2,32.17,31.94,,,,,2.51,33.21,15.854,0.22207,0.871,1.3936,-0.28025,-0.5605
2019-07-03 12:40:00+00:00,1562157601,19.672,44238.12,32.26,32.01,,,,,2.49,32.88,15.402,0.21573,0.847,1.3552,-0.2944,-0.5888
2019-07-03 13:00:00+00:00,1562158801,19.571,44243.43,32.34,32.09,,,,,2.39,31.51,14.365,0.20119,0.833,1.3328,-0.2843,-0.5686
2019-07-03 13:20:00+00:00,1562160001,19.49,44124.29,32.3,32.05,,,,,2.33,30.69,16.017,0.22433,0.8125,1.3,-0.25095,-0.5019
2019-07-03 13:40:00+00:00,1562161201,19.405,43953.23,32.23,31.99,,,,,2.33,30.67,15.211,0.21305,0.794,1.2704,-0.2562,-0.5124
2019-07-03 14:00:00+00:00,1562162402,19.313,43756.33,32.14,31.91,,,,,2.36,31,15.507,0.21719,0.782,1.2512,-0.2208,-0.4416
2019-07-03 14:20:00+00:00,1562163601,19.223,43718.97,32.18,31.94,,,,,2.46,32.24,15.174,0.21255,0.7655,1.2248,-0.20115,-0.4023
2019-07-03 14:40:00+00:00,1562164802,19.176,43825.36,32.3,32.05,,,,,2.86,37.54,16.692,0.23379,0.749,1.1984,-0.1644,-0.3288
2019-07-03 15:00:00+00:00,1562166001,19.156,43755.92,32.26,32.01,,,,,3.26,42.76,16.993,0.23798,0.739,1.1824,-0.1906,-0.3812
2019-07-03 15:20:00+00:00,1562167201,19.289,43839.01,32.22,31.98,,,,,3.59,47.1,17.939,0.25127,0.7265,1.1624,-0.1587,-0.3174
2019-07-03 15:40:00+00:00,1562168401,19.448,43979.6,32.22,31.98,,,,,3.91,51.47,18.809,0.26343,0.713,1.1408,-0.155,-0.31
2019-07-03 16:00:00+00:00,1562169602,19.568,44137.06,32.25,32.01,,,,,3.45,45.51,19.948,0.27942,0.716,1.1456,-0.0879,-0.1758
2019-07-03 16:20:00+00:00,1562170802,19.727,44253.97,32.23,31.99,,,,,4.09,54.13,19.173,0.26856,0.7335,1.1736,-0.05695,-0.1139
2019-07-03 16:40:00+00:00,1562172001,19.923,44298.45,32.11,31.89,,,,,3.51,46.58,20.745,0.29057,0.748,1.1968,-0.0588,-0.1176